STARLINK-35640 (66536 NORAD) Tracking and Keplerian Element Data

This shows tracking and keplerian element data for the satellite.

Feedback or suggestion? Click here.




ElementValue
Catalog66536
NameSTARLINK-35640
Epoch Orbit609
Epoch Day354.25003472
Epoch Year2025
RAAN10.212
Inclination43
Eccentricity0.00013
Argument of Perigee263.1108
Mean Anonmoly41.393
Mean Motion15.40687641
Decay Rate1.552E-05
L11 66536U 25265W 25354.25003472 .00001552 00000+0 44426-4 0 9994
L22 66536 43.0000 10.2120 0001300 263.1108 41.3930 15.40687641 6093



Live tracking and technical data element details for STARLINK-35640 (NORAD 66536). STARLINK-35640 can be tracked NOW for your location showing map with azimuth and elevation plus other details from your city location.







IsCatalogInMostPopularTable: catalog: 66536, numindb: 10
Update: records affected: 1



GetName: 66536 STARLINK-35640

Hit Count: updated at: Sun, 19 Apr 2026 08:02:26 GMT